Weather in Lukov

Ukraine / Volyn Oblast     51°13′59″N   24°20′51″E
temp.,
°C
wind,
m/s
gust,
m/s
humid.,
%
clouds,
%
prec.,
mm/h
press.,
hPa
HPBL,
m
15 may, sat
sat1500:00+10sw369628 0.0 1005105
03:00+9w369832 0.0 1006144
06:00+10wnw499790 0.4 1007367
09:00+12wnw6888100 0.4 1009568
12:00+16w566598 0.0 10091173
15:00+14w5667100 0.1 1010876
18:00+16nnw246177 0.0 1010691
21:00+13wsw127543 0.1 101017
16 may, sun
sun1600:00+10sse2287100 0.0 101013
03:00+9sse3390100 0.0 101137
06:00+9se369281 0.0 1010102
09:00+14sse6107773 0.0 1009528
12:00+18sse686595 0.0 10091227
15:00+20sse6761100 1.1 10071742
18:00+17s4780100 1.9 1006283
21:00+14ssw4889100 2.3 1005175
17 may, mon
mon1700:00+12ssw3995100 1.4 1006239
03:00+11sw3796100 1.4 1006225
06:00+11sw349793 0.0 1007129
09:00+13w238552 0.0 1007478
12:00+17wnw236335 0.1 10071305
15:00+18wnw225399 0.1 10061551
18:00+19nw225063 0.0 10041714
21:00+15nne1168100 0.1 100411
18 may, tue
tue1800:00+11nw5991100 0.3 1005312
03:00+11wnw3796100 0.3 1006402
06:00+8wsw499899 0.0 1006238
09:00+12w798475 0.0 1007701
12:00+15w796498 0.1 10081495
15:00+14w69689 0.4 10091227
18:00+14w587269 0.5 1009764
21:00+11w36870 0.6 101097
19 may, wed
wed1900:00+8wsw479410 0.0 1011118
03:00+7wsw35945 0.0 101185
06:00+7wnw33945 0.0 101153
09:00+12wsw347919 0.0 1012468
12:00+15w4465100 0.6 10111215
15:00+16nw5561100 1.1 10101334
18:00+14nw5779100 0.7 1011607
21:00+11nw4988100 1.0 1011216